THY2821 LTCG-LTFM

Flight info

Callsign THY2821
Flight time 1h 30m
Altitude 34000
Route TOLUN UL851 KARDE UN644 INB UW702 GUMRU UT315 NUGBA
Aircraft A321/M-SDE3FGHIRWY/LB1

Departure

Time 2026-05-08 09:04
Airport Trabzon International Airport (LTCG)

Arrival

Time 2026-05-08 10:35
Airport İstanbul Airport (LTFM)
Time Latitude Longitude Altitude Speed Heading
2026-05-08 08:20 40.99588 39.78009 89 ft 0 kts 321°
2026-05-08 09:01 40.99596 39.78002 91 ft 4 kts 330°
2026-05-08 09:01 40.99650 39.77995 91 ft 9 kts 343°
2026-05-08 09:02 40.99685 39.77931 89 ft 9 kts 292°
2026-05-08 09:02 40.99710 39.77848 90 ft 10 kts 292°
2026-05-08 09:02 40.99737 39.77759 91 ft 11 kts 292°
2026-05-08 09:02 40.99767 39.77664 91 ft 11 kts 292°
2026-05-08 09:03 40.99798 39.77563 93 ft 12 kts 293°
2026-05-08 09:03 40.99862 39.77495 90 ft 13 kts 353°
2026-05-08 09:03 40.99937 39.77540 90 ft 12 kts 60°
2026-05-08 09:03 40.99918 39.77652 91 ft 14 kts 111°
2026-05-08 09:04 40.99856 39.77862 90 ft 53 kts 111°
2026-05-08 09:04 40.99626 39.78601 92 ft 119 kts 112°
2026-05-08 09:04 40.99241 39.79845 126 ft 167 kts 111°
2026-05-08 09:04 40.98869 39.81282 891 ft 158 kts 100°
2026-05-08 09:05 40.98675 39.82721 1567 ft 164 kts 98°
2026-05-08 09:05 40.98544 39.84293 2000 ft 181 kts 95°
2026-05-08 09:05 40.98411 39.86044 2255 ft 201 kts 95°
2026-05-08 09:05 40.98260 39.87958 2460 ft 216 kts 95°
2026-05-08 09:06 40.98179 39.89965 2934 ft 221 kts 78°
2026-05-08 09:06 40.98901 39.91727 3486 ft 226 kts 39°
2026-05-08 09:06 41.00335 39.92629 3834 ft 239 kts 11°
2026-05-08 09:06 41.02000 39.92959 4448 ft 244 kts
2026-05-08 09:07 41.03708 39.93115 5132 ft 248 kts
2026-05-08 09:07 41.05434 39.93118 5794 ft 249 kts 347°
2026-05-08 09:07 41.07040 39.92311 6465 ft 248 kts 324°
2026-05-08 09:07 41.08341 39.90764 6861 ft 261 kts 303°
2026-05-08 09:08 41.09155 39.88571 7342 ft 270 kts 291°
2026-05-08 09:08 41.09864 39.86249 7989 ft 274 kts 291°
2026-05-08 09:08 41.10587 39.83900 8671 ft 276 kts 291°
2026-05-08 09:08 41.11321 39.81530 9367 ft 279 kts 292°
2026-05-08 09:09 41.12065 39.79132 10061 ft 283 kts 292°
2026-05-08 09:09 41.12816 39.76717 10714 ft 284 kts 292°
2026-05-08 09:09 41.13577 39.74275 11278 ft 292 kts 292°
2026-05-08 09:09 41.14379 39.71692 11400 ft 313 kts 292°
2026-05-08 09:10 41.15235 39.68928 11540 ft 334 kts 292°
2026-05-08 09:10 41.16139 39.65991 11656 ft 353 kts 292°
2026-05-08 09:10 41.17078 39.62935 11777 ft 371 kts 292°
2026-05-08 09:10 41.18088 39.59647 11915 ft 388 kts 292°
2026-05-08 09:11 41.19105 39.56326 12278 ft 397 kts 292°
2026-05-08 09:11 41.20151 39.52910 12831 ft 401 kts 293°
2026-05-08 09:11 41.21206 39.49465 13433 ft 405 kts 292°
2026-05-08 09:11 41.22270 39.45983 14013 ft 409 kts 293°
2026-05-08 09:12 41.23341 39.42471 14533 ft 412 kts 293°
2026-05-08 09:12 41.24422 39.38929 15026 ft 416 kts 293°
2026-05-08 09:12 41.25513 39.35354 15513 ft 419 kts 293°
2026-05-08 09:12 41.26610 39.31750 15987 ft 422 kts 293°
2026-05-08 09:13 41.27713 39.28117 16470 ft 425 kts 293°
2026-05-08 09:13 41.28798 39.24443 16934 ft 429 kts 290°
2026-05-08 09:13 41.29532 39.20580 17364 ft 434 kts 281°
2026-05-08 09:13 41.29967 39.16596 17786 ft 438 kts 279°
2026-05-08 09:14 41.30399 39.12571 18214 ft 441 kts 280°
2026-05-08 09:14 41.30834 39.08517 18629 ft 444 kts 280°
2026-05-08 09:14 41.31274 39.04438 18994 ft 447 kts 280°
2026-05-08 09:14 41.31717 39.00336 19381 ft 449 kts 280°
2026-05-08 09:15 41.32162 38.96212 19766 ft 452 kts 280°
2026-05-08 09:15 41.32610 38.92066 20151 ft 454 kts 280°
2026-05-08 09:15 41.33059 38.87897 20540 ft 456 kts 280°
2026-05-08 09:15 41.33508 38.83705 20904 ft 459 kts 280°
2026-05-08 09:16 41.34104 38.79528 21231 ft 460 kts 287°
2026-05-08 09:16 41.35148 38.75512 21602 ft 459 kts 296°
2026-05-08 09:16 41.36449 38.71619 21948 ft 461 kts 296°
2026-05-08 09:16 41.37755 38.67718 22306 ft 463 kts 296°
2026-05-08 09:17 41.39069 38.63778 22666 ft 466 kts 296°
2026-05-08 09:17 41.40379 38.59835 23028 ft 468 kts 296°
2026-05-08 09:17 41.41696 38.55862 23380 ft 470 kts 296°
2026-05-08 09:17 41.43016 38.51866 23720 ft 472 kts 296°
2026-05-08 09:18 41.44337 38.47848 24025 ft 474 kts 296°
2026-05-08 09:18 41.45661 38.43815 24338 ft 475 kts 296°
2026-05-08 09:18 41.46983 38.39790 24755 ft 473 kts 296°
2026-05-08 09:18 41.48284 38.35833 25173 ft 471 kts 296°
2026-05-08 09:19 41.49599 38.31838 25606 ft 470 kts 296°
2026-05-08 09:19 41.50908 38.27855 26019 ft 468 kts 296°
2026-05-08 09:19 41.52210 38.23881 26440 ft 467 kts 296°
2026-05-08 09:19 41.53506 38.19918 26870 ft 465 kts 296°
2026-05-08 09:20 41.54795 38.15966 27303 ft 463 kts 296°
2026-05-08 09:20 41.56075 38.12034 27742 ft 462 kts 296°
2026-05-08 09:20 41.57350 38.08106 28178 ft 460 kts 296°
2026-05-08 09:20 41.58621 38.04187 28620 ft 459 kts 296°
2026-05-08 09:21 41.59886 38.00284 29049 ft 457 kts 296°
2026-05-08 09:21 41.61145 37.96392 29479 ft 455 kts 296°
2026-05-08 09:22 41.68590 37.73307 31785 ft 446 kts 296°
2026-05-08 09:23 41.69809 37.69493 32116 ft 445 kts 296°
2026-05-08 09:23 41.71025 37.65687 32460 ft 444 kts 296°
2026-05-08 09:23 41.72239 37.61891 32795 ft 443 kts 296°
2026-05-08 09:23 41.73449 37.58105 33138 ft 442 kts 296°
2026-05-08 09:24 41.74655 37.54328 33479 ft 440 kts 296°
2026-05-08 09:24 41.75841 37.50611 33809 ft 439 kts 296°
2026-05-08 09:24 41.77039 37.46852 34124 ft 439 kts 296°
2026-05-08 09:25 41.79461 37.39241 34209 ft 444 kts 296°
2026-05-08 09:25 41.81859 37.31669 34209 ft 445 kts 296°
2026-05-08 09:26 41.84278 37.24014 34210 ft 445 kts 296°
2026-05-08 09:26 41.86684 37.16359 34210 ft 445 kts 295°
2026-05-08 09:27 41.89089 37.08698 34196 ft 446 kts 295°
2026-05-08 09:27 41.90667 37.00638 34202 ft 452 kts 278°
2026-05-08 09:28 41.91233 36.92222 34205 ft 453 kts 278°
2026-05-08 09:28 41.91813 36.83797 34209 ft 453 kts 278°
2026-05-08 09:29 41.92376 36.75418 34210 ft 454 kts 277°
2026-05-08 09:29 41.92932 36.66979 34222 ft 454 kts 277°
2026-05-08 09:30 41.93488 36.58547 34217 ft 454 kts 277°
2026-05-08 09:30 41.94032 36.50107 34223 ft 453 kts 277°
2026-05-08 09:31 41.94566 36.41667 34219 ft 453 kts 277°
2026-05-08 09:31 41.95097 36.33223 34219 ft 453 kts 277°
2026-05-08 09:32 41.95633 36.24782 34223 ft 453 kts 277°
2026-05-08 09:32 41.96074 36.17770 34222 ft 454 kts 277°
2026-05-08 09:33 41.96590 36.09320 34218 ft 454 kts 277°
2026-05-08 09:33 41.97093 36.00869 34217 ft 454 kts 277°
2026-05-08 09:34 41.97670 35.91052 34207 ft 453 kts 277°
2026-05-08 09:34 41.98086 35.83984 34218 ft 452 kts 277°
2026-05-08 09:35 41.98575 35.75563 34213 ft 452 kts 277°
2026-05-08 09:35 41.99063 35.67162 34217 ft 451 kts 277°
2026-05-08 09:36 41.99537 35.58814 34201 ft 450 kts 277°
2026-05-08 09:36 42.00002 35.50426 34215 ft 449 kts 277°
2026-05-08 09:37 42.00464 35.42055 34226 ft 449 kts 277°
2026-05-08 09:37 42.00924 35.33695 34232 ft 448 kts 277°
2026-05-08 09:38 42.01373 35.25341 34238 ft 448 kts 277°
2026-05-08 09:38 42.01817 35.17000 34224 ft 446 kts 278°
2026-05-08 09:39 42.02246 35.08685 34244 ft 446 kts 276°
2026-05-08 09:39 42.01961 35.00328 34246 ft 448 kts 270°
2026-05-08 09:40 42.01560 34.91983 34241 ft 447 kts 270°
2026-05-08 09:40 42.01168 34.83648 34227 ft 446 kts 270°
2026-05-08 09:41 42.00767 34.75324 34212 ft 446 kts 270°
2026-05-08 09:41 42.00352 34.67012 34186 ft 445 kts 270°
2026-05-08 09:42 41.99934 34.58725 34180 ft 444 kts 270°
2026-05-08 09:42 41.99516 34.50497 34179 ft 444 kts 270°
2026-05-08 09:43 41.99091 34.42220 34181 ft 444 kts 270°
2026-05-08 09:43 41.98658 34.33945 34184 ft 444 kts 270°
2026-05-08 09:44 41.98220 34.25674 34173 ft 443 kts 270°
2026-05-08 09:44 41.97773 34.17412 34177 ft 443 kts 270°
2026-05-08 09:45 41.97323 34.09155 34169 ft 443 kts 270°
2026-05-08 09:45 41.96871 34.00913 34177 ft 443 kts 270°
2026-05-08 09:46 41.96408 33.92671 34179 ft 442 kts 270°
2026-05-08 09:46 41.95938 33.84431 34168 ft 442 kts 270°
2026-05-08 09:47 41.95470 33.76186 34170 ft 443 kts 269°
2026-05-08 09:47 41.94735 33.67959 34169 ft 447 kts 262°
2026-05-08 09:48 41.93447 33.59790 34148 ft 447 kts 262°
2026-05-08 09:48 41.92169 33.51623 34156 ft 447 kts 262°
2026-05-08 09:49 41.90891 33.43468 34159 ft 447 kts 262°
2026-05-08 09:49 41.89616 33.35367 34158 ft 446 kts 261°
2026-05-08 09:50 41.88320 33.27223 34162 ft 446 kts 261°
2026-05-08 09:50 41.87012 33.19090 34154 ft 446 kts 261°
2026-05-08 09:51 41.85709 33.10972 34154 ft 445 kts 261°
2026-05-08 09:51 41.84406 33.02864 34154 ft 444 kts 261°
2026-05-08 09:52 41.83091 32.94767 34163 ft 444 kts 261°
2026-05-08 09:52 41.81771 32.86673 34154 ft 444 kts 260°
2026-05-08 09:53 41.80453 32.78594 34153 ft 444 kts 260°
2026-05-08 09:53 41.79122 32.70513 34158 ft 444 kts 260°
2026-05-08 09:54 41.77794 32.62486 34154 ft 444 kts 260°
2026-05-08 09:54 41.76449 32.54409 34157 ft 444 kts 260°
2026-05-08 09:55 41.75102 32.46331 34162 ft 444 kts 260°
2026-05-08 09:55 41.73754 32.38265 34154 ft 444 kts 260°
2026-05-08 09:56 41.72396 32.30195 34147 ft 444 kts 259°
2026-05-08 09:56 41.70992 32.22141 34154 ft 444 kts 258°
2026-05-08 09:57 41.68786 32.10090 34157 ft 444 kts 258°
2026-05-08 09:57 41.67314 32.02049 34157 ft 444 kts 258°
2026-05-08 09:58 41.65852 31.94017 34147 ft 444 kts 259°
2026-05-08 09:58 41.64390 31.85993 34152 ft 445 kts 258°
2026-05-08 09:59 41.62917 31.78009 34156 ft 445 kts 258°
2026-05-08 09:59 41.61426 31.69986 34156 ft 445 kts 258°
2026-05-08 10:00 41.59943 31.61961 34158 ft 445 kts 258°
2026-05-08 10:00 41.58456 31.53942 34148 ft 444 kts 259°
2026-05-08 10:01 41.56956 31.45959 34152 ft 443 kts 259°
2026-05-08 10:01 41.55477 31.37984 34156 ft 441 kts 262°
2026-05-08 10:02 41.55214 31.29952 34152 ft 434 kts 277°
2026-05-08 10:02 41.55742 31.21943 33856 ft 432 kts 277°
2026-05-08 10:03 41.55998 31.17956 33582 ft 432 kts 277°
2026-05-08 10:03 41.56254 31.13954 33209 ft 433 kts 277°
2026-05-08 10:03 41.56508 31.09932 32347 ft 436 kts 276°
2026-05-08 10:03 41.56761 31.05885 31538 ft 439 kts 276°
2026-05-08 10:04 41.57017 31.01810 30707 ft 442 kts 276°
2026-05-08 10:04 41.57276 30.97691 29715 ft 448 kts 276°
2026-05-08 10:04 41.57535 30.93533 28758 ft 450 kts 276°
2026-05-08 10:04 41.57789 30.89361 27797 ft 452 kts 276°
2026-05-08 10:05 41.58044 30.85161 26749 ft 456 kts 276°
2026-05-08 10:05 41.58300 30.80967 26327 ft 447 kts 276°
2026-05-08 10:05 41.58546 30.76905 26194 ft 431 kts 276°
2026-05-08 10:05 41.58781 30.72987 26070 ft 416 kts 276°
2026-05-08 10:06 41.58946 30.69193 25884 ft 404 kts 270°
2026-05-08 10:06 41.58656 30.65505 25649 ft 399 kts 260°
2026-05-08 10:06 41.57930 30.61938 25408 ft 398 kts 256°
2026-05-08 10:06 41.57163 30.58439 25027 ft 396 kts 256°
2026-05-08 10:07 41.56475 30.54852 24581 ft 391 kts 263°
2026-05-08 10:07 41.56277 30.51264 24162 ft 387 kts 273°
2026-05-08 10:07 41.56581 30.47720 23729 ft 383 kts 283°
2026-05-08 10:07 41.57252 30.44336 23265 ft 381 kts 286°
2026-05-08 10:08 41.57954 30.40928 22841 ft 380 kts 287°
2026-05-08 10:08 41.58957 30.37686 22418 ft 377 kts 299°
2026-05-08 10:08 41.60444 30.34822 21989 ft 375 kts 311°
2026-05-08 10:08 41.62358 30.32447 21354 ft 378 kts 323°
2026-05-08 10:09 41.64613 30.30641 20824 ft 377 kts 330°
2026-05-08 10:09 41.66879 30.28987 20689 ft 365 kts 330°
2026-05-08 10:09 41.69064 30.27375 20562 ft 352 kts 330°
2026-05-08 10:09 41.71170 30.25805 20434 ft 341 kts 330°
2026-05-08 10:10 41.73213 30.24266 20159 ft 334 kts 329°
2026-05-08 10:10 41.75222 30.22723 19788 ft 331 kts 327°
2026-05-08 10:10 41.76930 30.20722 19474 ft 326 kts 307°
2026-05-08 10:10 41.78019 30.18090 19169 ft 324 kts 288°
2026-05-08 10:11 41.78390 30.15129 18871 ft 324 kts 269°
2026-05-08 10:11 41.78020 30.12168 18574 ft 325 kts 253°
2026-05-08 10:11 41.77321 30.09290 18253 ft 325 kts 253°
2026-05-08 10:11 41.76614 30.06423 17931 ft 324 kts 252°
2026-05-08 10:12 41.75907 30.03567 17648 ft 322 kts 252°
2026-05-08 10:12 41.75202 30.00724 17352 ft 321 kts 252°
2026-05-08 10:12 41.74502 29.97892 17050 ft 319 kts 252°
2026-05-08 10:12 41.73815 29.95116 16754 ft 317 kts 252°
2026-05-08 10:13 41.73125 29.92316 16464 ft 316 kts 253°
2026-05-08 10:13 41.72755 29.89449 16174 ft 312 kts 272°
2026-05-08 10:13 41.73190 29.86628 15893 ft 311 kts 294°
2026-05-08 10:13 41.74367 29.84229 15603 ft 310 kts 315°
2026-05-08 10:14 41.76114 29.82559 15316 ft 310 kts 331°
2026-05-08 10:14 41.78023 29.81206 15017 ft 310 kts 331°
2026-05-08 10:14 41.79927 29.79853 14727 ft 309 kts 331°
2026-05-08 10:14 41.81744 29.78332 14434 ft 307 kts 319°
2026-05-08 10:15 41.83153 29.76208 14149 ft 305 kts 301°
2026-05-08 10:15 41.84018 29.73641 14006 ft 303 kts 284°
2026-05-08 10:15 41.84314 29.70849 13891 ft 303 kts 272°
2026-05-08 10:15 41.84392 29.68029 13766 ft 303 kts 272°
2026-05-08 10:16 41.84471 29.65204 13645 ft 302 kts 272°
2026-05-08 10:16 41.84551 29.62400 13523 ft 301 kts 272°
2026-05-08 10:16 41.84580 29.59596 13402 ft 300 kts 265°
2026-05-08 10:16 41.84175 29.56859 13287 ft 300 kts 251°
2026-05-08 10:17 41.83293 29.54334 13181 ft 299 kts 241°
2026-05-08 10:17 41.82296 29.51927 13057 ft 299 kts 242°
2026-05-08 10:17 41.81294 29.49488 12940 ft 298 kts 242°
2026-05-08 10:17 41.80306 29.47048 12825 ft 297 kts 245°
2026-05-08 10:18 41.79616 29.44467 12715 ft 294 kts 258°
2026-05-08 10:18 41.79174 29.41798 12612 ft 293 kts 258°
2026-05-08 10:18 41.78723 29.39138 12487 ft 292 kts 258°
2026-05-08 10:18 41.78265 29.36494 12379 ft 291 kts 258°
2026-05-08 10:19 41.77811 29.33900 12248 ft 281 kts 258°
2026-05-08 10:19 41.77371 29.31391 12091 ft 272 kts 258°
2026-05-08 10:19 41.76945 29.28953 11874 ft 265 kts 258°
2026-05-08 10:20 41.76111 29.24167 11501 ft 263 kts 257°
2026-05-08 10:20 41.75696 29.21789 11269 ft 261 kts 257°
2026-05-08 10:20 41.75283 29.19423 11047 ft 261 kts 257°
2026-05-08 10:20 41.74933 29.17051 10804 ft 259 kts 267°
2026-05-08 10:21 41.75089 29.14702 10576 ft 257 kts 285°
2026-05-08 10:21 41.75822 29.12525 10343 ft 258 kts 303°
2026-05-08 10:21 41.76989 29.10697 10108 ft 259 kts 310°
2026-05-08 10:21 41.78202 29.08922 9864 ft 258 kts 310°
2026-05-08 10:22 41.79408 29.07147 9623 ft 257 kts 310°
2026-05-08 10:22 41.80610 29.05374 9390 ft 257 kts 310°
2026-05-08 10:22 41.81809 29.03604 9156 ft 256 kts 310°
2026-05-08 10:22 41.82966 29.01800 8922 ft 254 kts 301°
2026-05-08 10:23 41.83687 28.99675 8695 ft 250 kts 282°
2026-05-08 10:23 41.83828 28.97357 8333 ft 249 kts 262°
2026-05-08 10:23 41.83423 28.95119 8110 ft 247 kts 253°
2026-05-08 10:23 41.82926 28.92917 7893 ft 246 kts 253°
2026-05-08 10:24 41.82437 28.90728 7659 ft 245 kts 253°
2026-05-08 10:24 41.81950 28.88543 7421 ft 244 kts 253°
2026-05-08 10:24 41.81310 28.86452 7192 ft 243 kts 234°
2026-05-08 10:24 41.80001 28.85051 6969 ft 246 kts 202°
2026-05-08 10:25 41.78299 28.84831 6907 ft 254 kts 171°
2026-05-08 10:25 41.76622 28.85648 6851 ft 258 kts 162°
2026-05-08 10:25 41.74921 28.86379 6728 ft 255 kts 174°
2026-05-08 10:25 41.73241 28.86169 6622 ft 242 kts 204°
2026-05-08 10:26 41.71871 28.85003 6491 ft 230 kts 228°
2026-05-08 10:26 41.71003 28.83205 6365 ft 228 kts 247°
2026-05-08 10:26 41.70369 28.81260 6213 ft 228 kts 246°
2026-05-08 10:26 41.69730 28.79326 5968 ft 227 kts 246°
2026-05-08 10:27 41.69094 28.77405 5699 ft 225 kts 246°
2026-05-08 10:27 41.68471 28.75520 5453 ft 224 kts 246°
2026-05-08 10:27 41.67726 28.73710 5185 ft 223 kts 230°
2026-05-08 10:27 41.66466 28.72429 5025 ft 245 kts 205°
2026-05-08 10:28 41.64743 28.72000 5002 ft 261 kts 183°
2026-05-08 10:28 41.62918 28.72038 4996 ft 260 kts 182°
2026-05-08 10:28 41.61164 28.72095 4994 ft 244 kts 183°
2026-05-08 10:28 41.59521 28.72131 4990 ft 228 kts 183°
2026-05-08 10:29 41.58459 28.72151 4998 ft 224 kts 184°
2026-05-08 10:29 41.56903 28.72178 5009 ft 223 kts 184°
2026-05-08 10:29 41.55368 28.72207 4997 ft 224 kts 184°
2026-05-08 10:29 41.53295 28.72248 4695 ft 222 kts 184°
2026-05-08 10:30 41.52276 28.72268 4506 ft 220 kts 184°
2026-05-08 10:30 41.50751 28.72298 4215 ft 218 kts 184°
2026-05-08 10:30 41.49236 28.72328 3928 ft 216 kts 184°
2026-05-08 10:30 41.47747 28.72358 3653 ft 211 kts 184°
2026-05-08 10:31 41.46319 28.72387 3384 ft 199 kts 185°
2026-05-08 10:31 41.44986 28.72415 3147 ft 186 kts 185°
2026-05-08 10:31 41.43723 28.72439 2884 ft 175 kts 186°
2026-05-08 10:31 41.42549 28.72462 2658 ft 163 kts 184°
2026-05-08 10:32 41.41436 28.72482 2468 ft 158 kts 184°
2026-05-08 10:32 41.40341 28.72502 2246 ft 156 kts 184°
2026-05-08 10:32 41.39281 28.72524 2051 ft 147 kts 182°
2026-05-08 10:32 41.38279 28.72543 1853 ft 142 kts 183°
2026-05-08 10:33 41.37290 28.72561 1670 ft 141 kts 184°
2026-05-08 10:33 41.36320 28.72580 1469 ft 139 kts 183°
2026-05-08 10:33 41.35355 28.72598 1296 ft 138 kts 184°
2026-05-08 10:33 41.34392 28.72617 1115 ft 141 kts 185°
2026-05-08 10:34 41.33416 28.72630 947 ft 139 kts 185°
2026-05-08 10:34 41.32452 28.72642 787 ft 138 kts 186°
2026-05-08 10:34 41.31478 28.72640 645 ft 140 kts 181°
2026-05-08 10:34 41.30505 28.72674 516 ft 140 kts 182°
2026-05-08 10:35 41.29551 28.72707 352 ft 134 kts 181°
2026-05-08 10:35 41.28731 28.72716 333 ft 99 kts 179°
2026-05-08 10:35 41.28217 28.72729 329 ft 49 kts 179°
2026-05-08 10:35 41.27942 28.72738 333 ft 37 kts 172°
2026-05-08 10:36 41.27712 28.72879 333 ft 36 kts 150°
2026-05-08 10:36 41.27508 28.72973 331 ft 30 kts 180°
2026-05-08 10:36 41.27298 28.72976 331 ft 30 kts 180°
2026-05-08 10:36 41.27090 28.72982 331 ft 30 kts 178°
2026-05-08 10:37 41.26918 28.72988 330 ft 15 kts 173°
2026-05-08 10:37 41.26865 28.73091 334 ft 16 kts 90°
2026-05-08 10:37 41.26867 28.73243 331 ft 17 kts 89°
2026-05-08 10:37 41.26796 28.73333 331 ft 16 kts 177°
2026-05-08 10:38 41.26678 28.73336 331 ft 17 kts 179°
2026-05-08 10:38 41.26557 28.73372 332 ft 19 kts 160°
2026-05-08 10:38 41.26437 28.73426 331 ft 13 kts 162°
2026-05-08 10:38 41.26384 28.73476 332 ft 10 kts 109°
2026-05-08 10:39 41.26400 28.73551 330 ft 5 kts 71°
2026-05-08 10:39 41.26404 28.73566 332 ft 0 kts 72°